Beaufort, SC

6:53 AM EDT on August 24, 2016 (GMT -0400)
Beaufort Marine Corps Air Station

Weather History for KNBC - May, 2014

Change the Weather History Date:

Thursday, May 22, 2014

  Actual Average Record
Temperature  
Mean Temperature 80 °F -  
Max Temperature 93 °F 83 °F 99 °F (1938)
Min Temperature 68 °F 65 °F 49 °F (1968)
Cooling Degree Days 16    
Growing Degree Days 30 (Base 50)    
Moisture  
Dew Point 61 °F    
Average Humidity 54    
Maximum Humidity 84    
Minimum Humidity 29    
Precipitation  
Precipitation 0.00 in - - ()
Sea Level Pressure  
Sea Level Pressure 30.01 in    
Wind  
Wind Speed 10 mph (NW)    
Max Wind Speed 17 mph    
Max Gust Speed 24 mph    
Visibility 10 miles    
Events      
Averages and records for this station are not official NWS values.
T = Trace of Precipitation, MM = Missing Value Source: NWS Daily Summary

Daily Weather History Graph

Daily Weather History Graph

Search for Another Location

Airport or City:

Trip Planner

Search our weather history database for the weather conditions in past years. The results will help you decide how hot, cold, wet, or windy it might be!

Date:

Astronomy

May. 22, 2014 Rise Set
Actual Time 6:20 AM EDT 8:19 PM EDT
Civil Twilight 5:52 AM EDT 8:46 PM EDT
Nautical Twilight 5:19 AM EDT 9:20 PM EDT
Astronomical Twilight 4:44 AM EDT 9:55 PM EDT
Moon 2:16 AM EDT (5/22) 2:25 PM EDT (5/22)
Length of Visible Light 14h 53m
Length of Day
13h 58m
Last Quarter, 37% of the Moon is Illuminated
May 22
Last Quarter
May 28
New
Jun 5
First Quarter
Jun 13
Full
Jun 19
Last Quarter

Hourly Weather History & Observations

Time (EDT) Temp. Heat Index Dew Point Humidity Pressure Visibility Wind Dir Wind Speed Gust Speed Precip Events Conditions
12:56 AM 72.0 °F - 66.0 °F 81% 30.06 in 10.0 mi West 8.1 mph - N/A   Clear
1:56 AM 73.0 °F - 64.0 °F 73% 30.05 in 10.0 mi WNW 11.5 mph - N/A   Clear
2:56 AM 73.0 °F - 63.0 °F 71% 30.05 in 10.0 mi WNW 8.1 mph - N/A   Clear
3:56 AM 69.1 °F - 63.0 °F 81% 30.05 in 10.0 mi WNW 6.9 mph - N/A   Clear
4:56 AM 68.0 °F - 63.0 °F 84% 30.02 in 10.0 mi WNW 8.1 mph - N/A   Clear
5:56 AM 68.0 °F - 62.1 °F 81% 30.02 in 10.0 mi West 9.2 mph - N/A   Clear
6:56 AM 71.1 °F - 62.1 °F 73% 30.04 in 10.0 mi WNW 10.4 mph - N/A   Scattered Clouds
7:56 AM 73.9 °F - 62.1 °F 66% 30.04 in 10.0 mi NW 11.5 mph - N/A   Partly Cloudy
8:56 AM 78.1 °F - 62.1 °F 58% 30.05 in 10.0 mi NNW 13.8 mph 20.7 mph N/A   Scattered Clouds
9:56 AM 81.0 °F 82.2 °F 63.0 °F 54% 30.06 in 10.0 mi NNW 10.4 mph 18.4 mph N/A   Scattered Clouds
10:56 AM 86.0 °F 86.8 °F 63.0 °F 46% 30.06 in 10.0 mi North 12.7 mph - N/A   Clear
11:56 AM 88.0 °F 88.7 °F 63.0 °F 43% 30.04 in 10.0 mi NNW 13.8 mph 20.7 mph N/A   Clear
12:56 PM 89.1 °F 89.0 °F 61.0 °F 39% 30.01 in 7.0 mi North 10.4 mph - N/A   Clear
1:56 PM 91.9 °F 91.2 °F 59.0 °F 33% 29.99 in 10.0 mi NW 13.8 mph 21.9 mph N/A   Clear
2:56 PM 93.9 °F 93.2 °F 59.0 °F 31% 29.97 in 7.0 mi WNW 11.5 mph 24.2 mph N/A   Clear
3:56 PM 93.0 °F 91.7 °F 57.0 °F 30% 29.96 in 7.0 mi NW 16.1 mph 24.2 mph N/A   Clear
4:56 PM 93.9 °F 92.6 °F 57.0 °F 29% 29.94 in 10.0 mi NNW 17.3 mph 23.0 mph N/A   Clear
5:56 PM 91.9 °F 90.8 °F 57.9 °F 32% 29.94 in 8.0 mi NNW 13.8 mph - N/A   Clear
6:56 PM 91.0 °F 90.0 °F 57.9 °F 33% 29.95 in 10.0 mi NNW 9.2 mph - N/A   Clear
7:56 PM 87.1 °F 86.5 °F 59.0 °F 39% 29.96 in 10.0 mi NNW 8.1 mph - N/A   Clear
8:56 PM 82.9 °F 83.2 °F 60.1 °F 46% 29.97 in 10.0 mi NW 8.1 mph - N/A   Clear
9:56 PM 82.0 °F 82.7 °F 61.0 °F 49% 29.99 in 10.0 mi NW 6.9 mph - N/A   Clear
10:56 PM 78.1 °F - 63.0 °F 60% 30.00 in 10.0 mi WNW 6.9 mph - N/A   Clear
11:56 PM 78.1 °F - 63.0 °F 60% 30.01 in 10.0 mi NW 5.8 mph - N/A   Clear